DW8633 Weather Reports


Display with metric or nautical units.
time (UTC)temp
F
wind
direction
speed
MPH
gust
MPH
rain 1hr
in
rain 24hr
in
rain mn
in
humidity
%
barometer
mb
20260905210553 86 74 2.0 10.0 0.00 0.00 0.00 56 931.2
20260905210053 86 30 7.0 10.0 0.00 0.00 0.00 56 931.3
20260905205552 86 90 3.0 8.0 0.00 0.00 0.00 56 931.2
20260905205055 86 61 2.0 8.0 0.00 0.00 0.00 56 931.2
20260905204551 86 45 4.0 14.0 0.00 0.00 0.00 56 931.2
20260905204052 86 18 6.0 14.0 0.00 0.00 0.00 56 931.3
20260905203555 86 333 6.0 11.0 0.00 0.00 0.00 56 931.3
20260905203051 85 300 4.0 10.0 0.00 0.00 0.00 57 931.3
20260905202051 85 335 6.0 10.0 0.00 0.00 0.00 57 931.4
20260905201551 85 338 1.0 11.0 0.00 0.00 0.00 57 931.4
20260905201049 85 360 7.0 11.0 0.00 0.00 0.00 57 931.4
20260905200549 85 331 6.0 10.0 0.00 0.00 0.00 57 931.5
20260905200054 85 35 4.0 9.0 0.00 0.00 0.00 58 931.4
20260905195549 85 338 5.0 8.0 0.00 0.00 0.00 57 931.4
20260905195048 85 344 4.0 8.0 0.00 0.00 0.00 58 931.3
20260905194554 85 39 3.0 8.0 0.00 0.00 0.00 58 931.3
20260905194047 84 29 3.0 9.0 0.00 0.00 0.00 58 931.3
20260905193547 84 65 5.0 11.0 0.00 0.00 0.00 58 931.3
20260905193046 84 355 4.0 10.0 0.00 0.00 0.00 59 931.3
20260905192045 84 360 5.0 10.0 0.00 0.00 0.00 59 931.3
20260905191547 84 76 4.0 8.0 0.00 0.00 0.00 59 931.3
20260905191045 83 22 5.0 8.0 0.00 0.00 0.00 60 931.5
20260905190547 83 351 3.0 8.0 0.00 0.00 0.00 60 931.5
20260905190044 83 360 2.0 10.0 0.00 0.00 0.00 61 931.6
20260905185547 83 355 7.0 12.0 0.00 0.00 0.00 61 931.6
20260905185043 83 355 9.0 12.0 0.00 0.00 0.00 61 931.6
20260905184601 83 67 3.0 9.0 0.00 0.00 0.00 61 931.5
20260905184042 83 5 5.0 11.0 0.00 0.00 0.00 62 931.6
20260905183549 83 355 8.0 11.0 0.00 0.00 0.00 61 931.5
20260905183043 83 49 0.0 8.0 0.00 0.00 0.00 61 931.6
20260905182046 82 330 4.0 12.0 0.00 0.00 0.00 62 931.6
20260905181541 82 10 5.0 13.0 0.00 0.00 0.00 63 931.6
20260905181041 82 15 7.0 12.0 0.00 0.00 0.00 63 931.5
20260905180540 81 117 5.0 12.0 0.00 0.00 0.00 63 931.5
20260905180039 81 94 6.0 12.0 0.00 0.00 0.00 64 931.5
20260905175539 81 103 5.0 11.0 0.00 0.00 0.00 64 931.6
20260905175039 81 53 7.0 11.0 0.00 0.00 0.00 64 931.6
20260905174544 80 51 5.0 10.0 0.00 0.00 0.00 65 931.6
20260905174039 81 355 6.0 10.0 0.00 0.00 0.00 64 931.6
20260905173538 81 329 5.0 11.0 0.00 0.00 0.00 63 931.8
20260905173037 80 12 3.0 8.0 0.00 0.00 0.00 65 931.8
20260905172036 80 57 4.0 6.0 0.00 0.00 0.00 66 931.9
20260905171536 80 61 2.0 7.0 0.00 0.00 0.00 67 932.0
20260905171034 79 62 2.0 7.0 0.00 0.00 0.00 67 932.0
20260905170534 79 55 5.0 7.0 0.00 0.00 0.00 66 932.1
20260905170032 79 138 2.0 6.0 0.00 0.00 0.00 67 932.1
20260905165531 79 124 4.0 7.0 0.00 0.00 0.00 68 932.1
20260905165030 78 179 4.0 7.0 0.00 0.00 0.00 69 931.8
20260905164529 78 247 3.0 7.0 0.00 0.00 0.00 69 931.9
20260905164029 78 59 3.0 8.0 0.00 0.00 0.00 70 931.8
20260905163528 77 65 3.0 8.0 0.00 0.00 0.00 70 931.8
20260905163128 77 114 4.0 12.0 0.00 0.00 0.00 70 931.8
20260905162025 77 95 4.0 12.0 0.00 0.00 0.00 71 931.4
20260905161527 77 98 8.0 12.0 0.00 0.00 0.00 71 931.1
20260905161025 76 78 7.0 14.0 0.00 0.00 0.00 73 931.0
20260905160523 76 109 8.0 14.0 0.00 0.00 0.00 73 931.0
20260905160039 75 100 6.0 11.0 0.00 0.00 0.00 73 931.0
20260905155522 75 92 8.0 11.0 0.00 0.00 0.00 73 930.9
20260905155019 75 114 6.0 10.0 0.00 0.00 0.00 74 931.0
20260905154518 75 96 8.0 10.0 0.00 0.00 0.00 74 931.1
20260905154017 74 112 5.0 11.0 0.00 0.00 0.00 75 931.0
20260905153516 74 115 7.0 11.0 0.00 0.00 0.00 76 930.9
20260905153016 73 90 7.0 10.0 0.00 0.00 0.00 76 930.9
20260905152018 73 90 7.0 10.0 0.00 0.00 0.00 77 931.2
20260905151515 73 99 6.0 10.0 0.00 0.00 0.00 77 931.2
20260905151015 73 92 6.0 10.0 0.00 0.00 0.00 78 931.3
20260905150511 72 86 6.0 10.0 0.00 0.00 0.00 79 931.3
20260905150021 72 360 6.0 10.0 0.00 0.00 0.00 79 931.4
20260905145512 71 360 8.0 14.0 0.00 0.00 0.00 80 931.1
20260905145010 71 360 8.0 15.0 0.00 0.00 0.00 81 931.1
20260905144535 71 360 9.0 18.0 0.00 0.00 0.00 81 931.0
20260905144012 70 360 11.0 18.0 0.00 0.00 0.00 82 930.8
20260905143511 70 360 9.0 16.0 0.00 0.00 0.00 82 930.8
20260905143018 69 360 8.0 14.0 0.00 0.00 0.00 85 930.8
20260905142012 68 360 10.0 15.0 0.00 0.00 0.00 85 931.0
20260905141509 68 360 9.0 15.0 0.00 0.00 0.00 86 930.9
20260905141009 68 360 8.0 11.0 0.00 0.00 0.00 88 931.0
20260905140508 67 360 5.0 10.0 0.00 0.00 0.00 89 931.1
20260905140008 66 360 6.0 10.0 0.00 0.00 0.00 91 931.1
20260905135507 66 360 4.0 7.0 0.00 0.00 0.00 92 931.1
20260905135009 65 360 3.0 7.0 0.00 0.00 0.00 93 931.1
20260905134513 64 360 0.0 4.0 0.00 0.00 0.00 93 931.1
20260905134007 63 360 1.0 5.0 0.00 0.00 0.00 93 931.1
20260905133505 62 360 2.0 5.0 0.00 0.00 0.00 94 931.2
20260905133008 61 360 2.0 4.0 0.00 0.00 0.00 93 931.2
20260905132004 60 250 2.0 6.0 0.00 0.00 0.00 93 930.9
20260905131506 60 360 4.0 6.0 0.00 0.00 0.00 93 930.8
20260905131004 59 360 4.0 6.0 0.00 0.00 0.00 93 930.7
20260905130503 59 360 0.0 5.0 0.00 0.00 0.00 93 930.6
20260905130002 58 360 2.0 6.0 0.00 0.00 0.00 93 930.5
20260905125503 58 360 3.0 6.0 0.00 0.00 0.00 93 930.5
20260905125100 58 360 4.0 6.0 0.00 0.00 0.00 92 930.3
20260905125002 58 360 4.0 6.0 0.00 0.00 0.00 92 930.2
20260905124600 58 360 4.0 5.0 0.00 0.00 0.00 92 930.1
20260905124059 58 360 2.0 5.0 0.00 0.00 0.00 92 930.0
20260905123604 58 360 2.0 5.0 0.00 0.00 0.00 92 930.1
20260905123101 58 360 2.0 5.0 0.00 0.00 0.00 92 930.1
20260905122058 58 360 0.0 5.0 0.00 0.00 0.00 92 929.9
20260905121556 58 360 2.0 6.0 0.00 0.00 0.00 92 929.8
20260905121056 58 360 4.0 6.0 0.00 0.00 0.00 91 929.8
20260905120554 59 360 4.0 5.0 0.00 0.00 0.00 92 929.7
20260905120058 59 360 3.0 5.0 0.00 0.00 0.00 92 929.7
20260905115557 59 360 3.0 5.0 0.00 0.00 0.00 91 929.5
20260905115055 59 360 3.0 5.0 0.00 0.00 0.00 92 929.5
20260905114624 59 360 1.0 5.0 0.00 0.00 0.00 92 929.4
20260905114051 59 360 2.0 6.0 0.00 0.00 0.00 92 929.2
20260905113551 59 360 1.0 7.0 0.00 0.00 0.00 92 929.3
20260905113051 59 360 3.0 5.0 0.00 0.00 0.00 92 929.3
20260905112049 59 360 4.0 7.0 0.00 0.00 0.00 91 929.1
20260905111553 59 360 4.0 7.0 0.00 0.00 0.00 91 929.1
20260905111049 60 360 4.0 6.0 0.00 0.00 0.00 91 928.9
20260905110547 60 360 4.0 8.0 0.00 0.00 0.00 91 928.8
20260905110048 60 360 6.0 8.0 0.00 0.00 0.00 91 928.8
20260905105547 60 360 2.0 5.0 0.00 0.00 0.00 90 928.8
20260905105046 60 360 4.0 5.0 0.00 0.00 0.00 90 928.6
20260905104544 60 360 3.0 5.0 0.00 0.00 0.00 90 928.6
20260905104044 61 360 4.0 5.0 0.00 0.00 0.00 90 928.6
20260905103545 61 360 1.0 4.0 0.00 0.00 0.00 91 928.7
20260905103043 60 360 0.0 0.0 0.00 0.00 0.00 89 928.5
20260905102043 61 360 0.0 0.0 0.00 0.00 0.00 90 928.4
20260905101543 62 360 0.0 0.0 0.00 0.00 0.00 91 928.4
20260905101041 61 360 0.0 0.0 0.00 0.00 0.00 90 928.2
20260905100540 61 360 0.0 0.0 0.00 0.00 0.00 89 928.1
20260905100056 61 360 0.0 0.0 0.00 0.00 0.00 88 927.9
20260905095539 61 360 0.0 0.0 0.00 0.00 0.00 87 927.9
20260905095043 61 360 0.0 0.0 0.00 0.00 0.00 87 927.8
20260905094538 61 360 0.0 0.0 0.00 0.00 0.00 85 927.7
20260905094036 62 360 0.0 1.0 0.00 0.00 0.00 84 927.9
20260905093536 63 360 0.0 1.0 0.00 0.00 0.00 86 927.6
20260905093035 63 360 1.0 2.0 0.00 0.00 0.00 85 927.6
20260905092034 63 360 0.0 4.0 0.00 0.00 0.00 83 927.6
20260905091533 64 360 0.0 0.0 0.00 0.00 0.00 81 927.6
20260905091034 65 360 0.0 4.0 0.00 0.00 0.00 80 927.6
20260905090532 66 360 0.0 7.0 0.00 0.00 0.00 83 927.6
20260905090032 66 360 2.0 7.0 0.00 0.00 0.00 82 927.5
20260905085532 67 146 4.0 8.0 0.00 0.00 0.00 82 927.6
20260905085032 67 146 6.0 8.0 0.00 0.00 0.00 83 927.5
20260905084533 66 360 6.0 8.0 0.00 0.00 0.00 83 927.5
20260905084032 65 360 6.0 8.0 0.00 0.00 0.00 84 927.5
20260905083532 65 360 0.0 4.0 0.00 0.00 0.00 83 927.7
20260905083031 65 360 2.0 5.0 0.00 0.00 0.00 83 927.8
20260905082033 64 360 2.0 3.0 0.00 0.00 0.00 80 927.6
20260905081529 65 360 0.0 5.0 0.00 0.00 0.00 77 927.7
20260905081028 66 360 3.0 7.0 0.00 0.00 0.00 75 927.7
20260905080528 68 360 4.0 7.0 0.00 0.00 0.00 79 927.5
20260905080028 67 360 4.0 6.0 0.00 0.00 0.00 79 927.5
20260905075527 67 360 0.0 5.0 0.00 0.00 0.00 76 927.5
20260905075024 69 360 0.0 8.0 0.00 0.00 0.00 74 927.5
20260905074529 69 360 4.0 10.0 0.00 0.00 0.00 75 927.4
20260905074026 69 360 7.0 10.0 0.00 0.00 0.00 75 927.4
20260905073523 69 360 8.0 11.0 0.00 0.00 0.00 75 927.3
20260905073033 69 360 7.0 11.0 0.00 0.00 0.00 75 927.3
20260905072025 69 360 7.0 10.0 0.00 0.00 0.00 75 927.3
20260905071525 69 360 7.0 10.0 0.00 0.00 0.00 74 927.3
20260905071022 69 360 7.0 9.0 0.00 0.00 0.00 74 927.3
20260905070522 69 360 7.0 9.0 0.00 0.00 0.00 73 927.3
20260905070021 70 360 7.0 10.0 0.00 0.00 0.00 73 927.4
20260905065520 70 360 8.0 12.0 0.00 0.00 0.00 72 927.4
20260905065024 70 360 9.0 13.0 0.00 0.00 0.00 72 927.4
20260905064518 71 360 9.0 13.0 0.00 0.00 0.00 71 927.3
20260905064018 71 360 10.0 13.0 0.00 0.00 0.00 71 927.2
20260905063516 71 360 9.0 13.0 0.00 0.00 0.00 70 927.2
20260905063015 71 360 9.0 12.0 0.00 0.00 0.00 70 927.2
20260905062013 71 360 9.0 12.0 0.00 0.00 0.00 69 927.2
20260905061510 72 360 9.0 13.0 0.00 0.00 0.00 69 927.2
20260905061009 72 360 9.0 14.0 0.00 0.00 0.00 68 927.2
20260905060509 72 360 9.0 14.0 0.00 0.00 0.00 68 927.2
20260905060014 72 360 10.0 13.0 0.00 0.00 0.00 68 927.1
20260905055509 72 360 9.0 13.0 0.00 0.00 0.00 68 927.3
20260905055009 73 360 9.0 13.0 0.00 0.00 0.00 67 927.2
20260905054509 73 360 9.0 13.0 0.00 0.00 0.00 66 927.2
20260905054009 74 360 9.0 14.0 0.00 0.00 0.00 66 927.1
20260905053513 74 360 9.0 14.0 0.00 0.00 0.00 65 927.0
20260905053008 75 360 9.0 13.0 0.00 0.00 0.00 64 927.0
20260905052008 75 360 8.0 12.0 0.00 0.00 0.00 64 926.9
20260905051509 75 360 8.0 12.0 0.00 0.00 0.00 64 926.9
20260905051008 75 360 9.0 12.0 0.00 0.00 0.00 64 926.9
20260905050510 75 360 7.0 11.0 0.00 0.00 0.00 63 926.9
20260905050008 76 135 8.0 13.0 0.00 0.00 0.00 62 926.9
20260905045508 77 123 9.0 14.0 0.00 0.00 0.00 62 926.9
20260905045008 77 128 9.0 14.0 0.00 0.00 0.00 61 927.0
20260905044508 77 112 10.0 14.0 0.00 0.00 0.00 61 926.9
20260905044007 77 114 10.0 14.0 0.00 0.00 0.00 60 926.9
20260905043507 78 112 9.0 13.0 0.00 0.00 0.00 60 926.9
20260905043008 78 106 10.0 13.0 0.00 0.00 0.00 60 926.8
20260905042007 79 123 10.0 15.0 0.00 0.00 0.00 58 926.8
20260905041507 79 113 10.0 14.0 0.00 0.00 0.00 58 926.9
20260905041007 79 117 10.0 15.0 0.00 0.00 0.00 57 926.8
20260905040507 80 123 10.0 15.0 0.00 0.00 0.00 56 926.7
20260905040006 81 115 10.0 15.0 0.00 0.00 0.00 56 926.8
20260905035506 81 116 12.0 18.0 0.00 0.00 0.00 55 926.8
20260905035006 81 110 11.0 18.0 0.00 0.00 0.00 55 926.8
20260905034506 81 101 10.0 15.0 0.00 0.00 0.00 55 926.8
20260905034005 81 114 10.0 15.0 0.00 0.00 0.00 55 926.8
20260905033508 81 100 9.0 14.0 0.00 0.00 0.00 55 926.9
20260905033015 81 101 9.0 13.0 0.00 0.00 0.00 54 927.0
20260905032006 82 82 10.0 15.0 0.00 0.00 0.00 53 926.9
20260905031505 83 81 8.0 16.0 0.00 0.00 0.00 52 926.9
20260905031005 83 98 10.0 18.0 0.00 0.00 0.00 52 927.0
20260905030505 83 86 10.0 18.0 0.00 0.00 0.00 52 927.0
20260905030006 83 101 11.0 16.0 0.00 0.00 0.00 52 926.9
20260905025508 83 94 11.0 18.0 0.00 0.00 0.00 52 926.9
20260905025004 83 96 12.0 18.0 0.00 0.00 0.00 52 926.9
20260905024505 84 73 10.0 16.0 0.00 0.00 0.00 51 927.0
20260905024006 84 108 10.0 21.0 0.00 0.00 0.00 51 926.9
20260905023504 84 91 11.0 21.0 0.00 0.00 0.00 51 926.9
20260905023023 84 107 11.0 16.0 0.00 0.00 0.00 51 926.8
20260905022004 84 83 11.0 16.0 0.00 0.00 0.00 50 926.8
20260905021504 84 98 10.0 16.0 0.00 0.00 0.00 50 926.8
20260905021004 85 90 9.0 15.0 0.00 0.00 0.00 49 926.7
20260905020505 85 91 11.0 15.0 0.00 0.00 0.00 49 926.7
20260905020005 85 101 8.0 12.0 0.00 0.00 0.00 49 926.6
20260905015503 85 92 8.0 14.0 0.00 0.00 0.00 48 926.7
20260905015002 85 80 8.0 14.0 0.00 0.00 0.00 47 926.6
20260905014502 84 84 7.0 11.0 0.00 0.00 0.00 46 926.6
20260905014002 84 78 5.0 8.0 0.00 0.00 0.00 46 926.4
20260905013505 85 67 4.0 9.0 0.00 0.00 0.00 45 926.3
20260905013002 85 74 5.0 9.0 0.00 0.00 0.00 44 926.3
20260905012004 86 70 5.0 9.0 0.00 0.00 0.00 42 926.3
20260905011503 87 92 6.0 9.0 0.00 0.00 0.00 40 926.4
20260905011003 89 92 3.0 10.0 0.00 0.00 0.00 39 926.3
20260905010503 89 86 7.0 10.0 0.00 0.00 0.00 38 926.3
20260905010004 90 84 7.0 11.0 0.00 0.00 0.00 37 926.3
20260905005502 90 82 6.0 13.0 0.00 0.00 0.00 37 926.2
20260905005002 90 83 8.0 14.0 0.00 0.00 0.00 36 926.2
20260905004502 90 78 7.0 14.0 0.00 0.00 0.00 36 926.2
20260905004002 91 88 9.0 14.0 0.00 0.00 0.00 36 926.2
20260905003501 91 99 8.0 15.0 0.00 0.00 0.00 36 926.3
20260905003001 91 91 9.0 15.0 0.00 0.00 0.00 35 926.3
20260905002002 91 93 9.0 13.0 0.00 0.00 0.00 35 926.2
20260905001609 92 96 7.0 12.0 0.00 0.00 0.00 35 926.2
20260905001503 92 95 8.0 12.0 0.00 0.00 0.00 35 926.2
20260905001100 92 97 7.0 13.0 0.00 0.00 0.00 36 926.0
20260905000600 92 87 6.0 13.0 0.00 0.00 0.00 35 926.1
20260905000118 92 73 8.0 14.0 0.00 0.00 0.00 35 926.2
20260904235601 92 93 9.0 14.0 0.00 0.00 0.00 35 926.2
20260904235102 93 116 7.0 12.0 0.00 0.00 0.00 34 926.2
20260904234600 93 117 7.0 11.0 0.00 0.00 0.00 35 926.3
20260904234058 92 117 6.0 13.0 0.00 0.00 0.00 34 926.3
20260904233600 93 106 9.0 13.0 0.00 0.00 0.00 33 926.3
20260904233059 93 105 8.0 12.0 0.00 0.00 0.00 35 926.2
20260904232103 92 96 7.0 14.0 0.00 0.00 0.00 35 926.3
20260904231603 93 124 8.0 14.0 0.00 0.00 0.00 35 926.3
20260904231059 93 101 10.0 15.0 0.00 0.00 0.00 35 926.2
20260904230559 93 101 8.0 15.0 0.00 0.00 0.00 36 926.2
20260904230058 92 105 7.0 15.0 0.00 0.00 0.00 37 926.3
20260904225557 92 108 9.0 16.0 0.00 0.00 0.00 36 926.3
20260904225059 93 104 9.0 16.0 0.00 0.00 0.00 36 926.4
20260904224602 92 121 10.0 18.0 0.00 0.00 0.00 36 926.3
20260904224056 92 119 9.0 16.0 0.00 0.00 0.00 36 926.4
20260904223551 92 115 11.0 16.0 0.00 0.00 0.00 37 926.4
20260904223053 92 116 12.0 19.0 0.00 0.00 0.00 35 926.4
20260904222049 92 129 10.0 19.0 0.00 0.00 0.00 35 926.6
20260904221546 92 96 11.0 18.0 0.00 0.00 0.00 34 926.6
20260904221045 92 96 11.0 21.0 0.00 0.00 0.00 35 926.5
20260904220544 91 123 12.0 21.0 0.00 0.00 0.00 34 926.7
20260904220107 91 126 9.0 21.0 0.00 0.00 0.00 34 926.7
20260904215542 92 118 15.0 21.0 0.00 0.00 0.00 35 926.7
20260904215045 91 121 12.0 21.0 0.00 0.00 0.00 35 926.6
20260904214541 91 121 12.0 21.0 0.00 0.00 0.00 36 926.7
20260904214041 92 125 12.0 20.0 0.00 0.00 0.00 35 926.7
20260904213542 91 131 12.0 22.0 0.00 0.00 0.00 36 926.7
20260904213038 91 130 14.0 22.0 0.00 0.00 0.00 36 926.7
20260904212036 91 127 14.0 22.0 0.00 0.00 0.00 36 926.8
20260904211548 90 128 15.0 24.0 0.00 0.00 0.00 37 926.9